sat.trackr.live / text

‹ back to catalog

STARLINK-32931

NORAD 63199 · 2025-048S

PAYLOAD ACTIVE UNKNOWN

§ Identity

Operator
Country
US
Launch date
2025-03-13
Launch site
AFETR
Launch vehicle
Mass (kg)
RCS (m²)

Purposes: comms

External: N2YO · Heavens-Above · Gunter

§ Orbital elements

Epoch: 2026-09-20T21:01:45.141888Z

Period
94.27 min
Inclination
43.0014°
Eccentricity
0.0001560
Mean motion
15.27592491 rev/d
Perigee alt
481.9 km
Apogee alt
484.1 km
Semi-major
6,861.1 km
B*
4.9828e-4
RAAN
62.9877°
Arg perigee
264.0654°
Mean anomaly
96.0020°
Rev number
8,694

§ Raw data

STARLINK-329311 63199U 25048S   26263.87621692  .00013480  00000+0  49828-3 0  99962 63199  43.0014  62.9877 0001560 264.0654  96.0020 15.27592491 86949

JSON: /api/v1/satellites/63199 · /tle

For live sub-satellite position, see the globe view (requires WebGL).

§ Visibility from observer

Set your observer location to see the next 7 days of passes ≥ 10°. The values pass through the URL so the page stays shareable.

No JS? Fill the form by hand. The geolocation button needs JavaScript.